Location: ???????
(52.3000°N, 54.4667°E)
Time: 12:25:37
(UTC+00:00)

CZ-2C R/B - Pass Details

Date: 24 January 2020
Orbit: 704 x 908 km, 98.1° (Epoch: 27 February)

Event Time Altitude Azimuth Distance (km) Brightness Sun altitude
Exits shadow 15:10:37 37° 58° (ENE) 1,330 3.8 -20.6°
Drops below altitude 10° 15:15:38 10° 358° (N) 2,560 5.7 -21.4°
Sets 15:18:14 0° 350° (N) 3,523 6.5 -21.8°
